Regional Weather Roundup
Issued by NWS

Home | Current Version | Previous Version | Graphics & Text | Print | Product List | Glossary On
Versions: 1 2 3 4 5 6 7 8 9 10 11 12 13 14 15 16 17 18 19 20 21 22 23 24 25 26 27 28 29 30 31 32 33 34 35 36 37 38 39 40 41 42 43 44 45 46 47 48 49 50
000
ASUS44 KMEG 300510
RWRTN
TENNESSEE HOURLY STATE WEATHER ROUNDUP
NATIONAL WEATHER SERVICE MEMPHIS TN
1200 AM CDT SAT MAY 30 2015

TNZ002-004-019-021-049-052-054-088>092-300600-
WEST TENNESSEE

CITY           SKY/WX    TMP DP  RH WIND       PRES   REMARKS
MEMPHIS INTL   PTCLDY    75  68  78 S15G21    30.00R
NWS MEMPHIS      N/A     74 N/A N/A MISG        N/A
JACKSON        PTCLDY    74  68  81 S7        30.03F
DYERSBURG      PTCLDY    73  57  56 SE5       30.00F
PARIS          CLEAR     70  66  88 SE8       30.04F
LEXINGTON      CLEAR     72  66  83 SE3       30.05S
$$

TNZ008-025-027-028-033-062-065-066-300600-
NORTH MIDDLE TENNESSEE

CITY           SKY/WX    TMP DP  RH WIND       PRES   REMARKS
NASHVILLE      CLOUDY    72  66  81 S3        30.10S
CLARKSVILLE    CLEAR     72  67  84 S6        30.06F
SMYRNA         PTCLDY    73  67  81 S3        30.11S
COOKEVILLE       N/A     64  64 100 CALM      30.13F
CROSSVILLE     PTCLDY    67  63  87 CALM      30.19S
$$

TNZ061-075-076-078-094-096-097-300600-
SOUTH MIDDLE TENNESSEE

CITY           SKY/WX    TMP DP  RH WIND       PRES   REMARKS
FAYETTEVILLE   CLEAR    N/A N/A N/A MISG      30.12F
TULLAHOMA      CLEAR     68  63  83 CALM      30.14F
WINCHESTER     PTCLDY    66  66 100 CALM      30.14S
MCMINNVILLE    CLEAR     66  66 100 S7        30.14S SQUALL
COLUMBIA       CLEAR     70  66  88 CALM      30.08F
SHELBYVILLE    PTCLDY    72  64  78 SE6       30.12F
$$

TNZ017-018-042-046-047-300600-
NORTHEAST TENNESSEE

CITY           SKY/WX    TMP DP  RH WIND       PRES   REMARKS
TRI CITIES     PTCLDY    63  62  97 CALM      30.19S
ELIZABETHTON   CLEAR     61  61 100 CALM      30.20F
$$

TNZ012-013-036-069-073-074-300600-
CENTRAL EAST TENNESSEE

CITY           SKY/WX    TMP DP  RH WIND       PRES   REMARKS
KNOXVILLE      PTCLDY    67  65  93 NE3       30.15F
OAK RIDGE      CLOUDY    71  65  81 CALM      30.17S
GATLINBURG     CLEAR     64  64 100 CALM      30.16F
MORRISTOWN     CLEAR     66  66 100 CALM      30.19S
$$

TNZ083-085-099-300600-
SOUTHEAST TENNESSEE

CITY           SKY/WX    TMP DP  RH WIND       PRES   REMARKS
CHATTANOOGA    PTCLDY    72  70  93 CALM      30.14F
$$

SKY/WX REPORTED AS FAIR MEANS FEW OR NO CLOUDS BELOW
12 THOUSAND FEET.




USA.gov is the U.S. government's official web portal to all federal, state and local government web resources and services.